When you browse on this site, cookies collect data to enhance your experience and personalize the content and advertising you see.
Visit our Privacy Policy to learn more. By continuing to use the site, you agree to this use of cookies and data.
  • în România
  • Lista ţărilor
  • Pe 7 zile
  • Temperatura apei
  • Meteo pe hartă
  • Widget-uri
  • user-avatar
    Intrare

    Meteo pe oră la Lewis

    Astăzi, 10 Decembrie, Marţi

    Timp Temperatura Precipitaţii Vânt Presiune Umiditate
    00:00 +5°C° 0 mm 14 m/s 741 mmHg 82%
    01:00 +5°C° 0.5 mm 15 m/s 740 mmHg 83%
    02:00 +5°C° 0.5 mm 16 m/s 738 mmHg 83%
    03:00 +5°C° 0.5 mm 17 m/s 736 mmHg 83%
    04:00 +5°C° 1.4 mm 17 m/s 734 mmHg 84%
    05:00 +5°C° 1.4 mm 17 m/s 731 mmHg 85%
    06:00 +6°C° 1.4 mm 17 m/s 729 mmHg 86%
    07:00 +6°C° 2.8 mm 17 m/s 727 mmHg 88%
    08:00 +7°C° 2.8 mm 17 m/s 725 mmHg 89%
    09:00 +7°C° 2.8 mm 17 m/s 723 mmHg 90%
    10:00 +6°C° 1.6 mm 15 m/s 722 mmHg 90%
    11:00 +6°C° 1.6 mm 14 m/s 722 mmHg 89%
    12:00 +5°C° 1.6 mm 13 m/s 721 mmHg 88%
    13:00 +4°C° 0.7 mm 13 m/s 722 mmHg 83%
    14:00 +3°C° 0.7 mm 13 m/s 722 mmHg 78%
    15:00 +1°C° 0.7 mm 13 m/s 723 mmHg 74%
    16:00 +3°C° 0.2 mm 14 m/s 723 mmHg 71%
    17:00 +3°C° 0.2 mm 14 m/s 723 mmHg 69%
    18:00 +3°C° 0.2 mm 14 m/s 722 mmHg 66%
    19:00 +2°C° 0.3 mm 15 m/s 723 mmHg 64%
    20:00 +2°C° 0.3 mm 15 m/s 724 mmHg 63%
    21:00 +2°C° 0.3 mm 16 m/s 725 mmHg 61%
    22:00 +1°C° 0.2 mm 16 m/s 725 mmHg 59%
    23:00 +1°C° 0.2 mm 16 m/s 726 mmHg 58%

    Mâine, 11 Decembrie, Miercuri

    Timp Temperatura Precipitaţii Vânt Presiune Umiditate
    00:00 +1°C° 0.2 mm 16 m/s 726 mmHg 56%
    01:00 +1°C° 0.1 mm 16 m/s 726 mmHg 57%
    02:00 +1°C° 0.1 mm 16 m/s 726 mmHg 58%
    03:00 +1°C° 0.1 mm 17 m/s 726 mmHg 59%
    04:00 +1°C° 0.2 mm 17 m/s 725 mmHg 60%
    05:00 +1°C° 0.2 mm 16 m/s 725 mmHg 61%
    06:00 0°C° 0.2 mm 16 m/s 725 mmHg 62%
    07:00 0°C° 0.4 mm 16 m/s 725 mmHg 63%
    08:00 0°C° 0.4 mm 16 m/s 725 mmHg 64%
    09:00 0°C° 0.4 mm 16 m/s 725 mmHg 66%
    10:00 0°C° 0.5 mm 17 m/s 725 mmHg 68%
    11:00 0°C° 0.5 mm 17 m/s 725 mmHg 71%
    12:00 0°C° 0.5 mm 17 m/s 725 mmHg 74%
    13:00 -1°C° 0.4 mm 18 m/s 725 mmHg 74%
    14:00 -1°C° 0.4 mm 18 m/s 725 mmHg 73%
    15:00 -1°C° 0.4 mm 19 m/s 725 mmHg 73%
    16:00 -1°C° 0.3 mm 18 m/s 725 mmHg 73%
    17:00 0°C° 0.3 mm 17 m/s 726 mmHg 73%
    18:00 0°C° 0.3 mm 16 m/s 727 mmHg 73%
    19:00 0°C° 0.1 mm 16 m/s 727 mmHg 73%
    20:00 0°C° 0.1 mm 16 m/s 728 mmHg 73%
    21:00 0°C° 0.1 mm 16 m/s 728 mmHg 73%
    22:00 0°C° 0.1 mm 15 m/s 729 mmHg 72%
    23:00 0°C° 0.1 mm 14 m/s 729 mmHg 71%

    Poimâine, 12 Decembrie, Joi

    Timp Temperatura Precipitaţii Vânt Presiune Umiditate
    00:00 0°C° 0.1 mm 12 m/s 729 mmHg 69%
    01:00 +1°C° 0.1 mm 11 m/s 729 mmHg 69%
    02:00 0°C° 0.1 mm 10 m/s 729 mmHg 68%
    03:00 0°C° 0.1 mm 10 m/s 729 mmHg 67%
    04:00 0°C° 0.1 mm 9 m/s 728 mmHg 68%
    05:00 0°C° 0.1 mm 8 m/s 728 mmHg 70%
    06:00 0°C° 0.1 mm 7 m/s 728 mmHg 71%
    07:00 -1°C° 0.1 mm 6 m/s 727 mmHg 77%
    08:00 0°C° 0.1 mm 5 m/s 727 mmHg 82%
    09:00 0°C° 0.1 mm 4 m/s 727 mmHg 88%
    10:00 +1°C° 0.1 mm 3 m/s 726 mmHg 89%
    11:00 +1°C° 0.1 mm 3 m/s 726 mmHg 90%
    12:00 +2°C° 0.1 mm 2 m/s 725 mmHg 92%
    13:00 +1°C° 0.4 mm 3 m/s 724 mmHg 93%
    14:00 0°C° 0.4 mm 4 m/s 723 mmHg 95%
    15:00 0°C° 0.4 mm 5 m/s 723 mmHg 97%
    16:00 +1°C° 0.1 mm 5 m/s 722 mmHg 94%
    17:00 +1°C° 0.1 mm 6 m/s 722 mmHg 92%
    18:00 +1°C° 0.1 mm 6 m/s 722 mmHg 90%
    19:00 +1°C° 0 mm 6 m/s 722 mmHg 89%
    20:00 +1°C° 0 mm 6 m/s 722 mmHg 88%
    21:00 +1°C° 0 mm 6 m/s 722 mmHg 86%
    22:00 +1°C° 0 mm 6 m/s 722 mmHg 87%
    23:00 +1°C° 0 mm 6 m/s 722 mmHg 87%

    13 Decembrie, Vineri

    Timp Temperatura Precipitaţii Vânt Presiune Umiditate
    00:00 0°C° 0 mm 7 m/s 722 mmHg 87%
    01:00 0°C° 0 mm 7 m/s 723 mmHg 87%
    02:00 +1°C° 0 mm 6 m/s 723 mmHg 87%
    03:00 +1°C° 0 mm 6 m/s 723 mmHg 87%
    04:00 +1°C° 0.1 mm 6 m/s 724 mmHg 88%
    05:00 +1°C° 0.1 mm 6 m/s 724 mmHg 89%
    06:00 0°C° 0.1 mm 7 m/s 724 mmHg 90%
    07:00 +1°C° 0.1 mm 6 m/s 725 mmHg 90%
    08:00 +2°C° 0.1 mm 6 m/s 725 mmHg 91%
    09:00 +2°C° 0.1 mm 6 m/s 726 mmHg 92%
    10:00 +2°C° 0.1 mm 6 m/s 726 mmHg 91%
    11:00 +2°C° 0.1 mm 5 m/s 726 mmHg 90%
    12:00 +2°C° 0.1 mm 5 m/s 726 mmHg 89%
    13:00 +2°C° 0.2 mm 5 m/s 726 mmHg 91%
    14:00 +3°C° 0.2 mm 4 m/s 725 mmHg 92%
    15:00 +3°C° 0.2 mm 4 m/s 725 mmHg 94%
    16:00 +3°C° 1 mm 4 m/s 724 mmHg 95%
    17:00 +2°C° 1 mm 5 m/s 724 mmHg 95%
    18:00 +2°C° 1 mm 5 m/s 723 mmHg 96%
    19:00 +2°C° 0.8 mm 5 m/s 722 mmHg 96%
    20:00 +2°C° 0.8 mm 5 m/s 721 mmHg 96%
    21:00 +2°C° 0.8 mm 5 m/s 720 mmHg 96%
    22:00 +2°C° 2.1 mm 5 m/s 720 mmHg 95%
    23:00 +2°C° 2.1 mm 6 m/s 719 mmHg 95%

    14 Decembrie, Sâmbătă

    Timp Temperatura Precipitaţii Vânt Presiune Umiditate
    00:00 +2°C° 2.1 mm 6 m/s 718 mmHg 94%
    01:00 +2°C° 1 mm 6 m/s 717 mmHg 93%
    02:00 +2°C° 1 mm 6 m/s 716 mmHg 92%
    03:00 +2°C° 1 mm 6 m/s 716 mmHg 91%
    04:00 +1°C° 0.2 mm 6 m/s 715 mmHg 88%
    05:00 +1°C° 0.2 mm 6 m/s 715 mmHg 85%
    06:00 +1°C° 0.2 mm 6 m/s 715 mmHg 82%
    07:00 +1°C° 0 mm 6 m/s 715 mmHg 81%
    08:00 +1°C° 0 mm 6 m/s 714 mmHg 81%
    09:00 +1°C° 0 mm 6 m/s 714 mmHg 81%
    10:00 0°C° 0 mm 7 m/s 714 mmHg 79%
    11:00 +1°C° 0 mm 8 m/s 714 mmHg 77%
    12:00 +1°C° 0 mm 9 m/s 714 mmHg 75%
    13:00 +1°C° 0.6 mm 9 m/s 714 mmHg 78%
    14:00 +1°C° 0.6 mm 9 m/s 714 mmHg 81%
    15:00 +1°C° 0.6 mm 9 m/s 714 mmHg 83%
    16:00 +1°C° 0.2 mm 9 m/s 714 mmHg 83%
    17:00 +1°C° 0.2 mm 9 m/s 714 mmHg 83%
    18:00 +1°C° 0.2 mm 8 m/s 714 mmHg 83%
    19:00 +1°C° 0.2 mm 9 m/s 714 mmHg 82%
    20:00 +1°C° 0.2 mm 9 m/s 715 mmHg 80%
    21:00 +1°C° 0.2 mm 9 m/s 715 mmHg 78%
    22:00 +1°C° 0.2 mm 10 m/s 715 mmHg 81%
    23:00 +1°C° 0.2 mm 11 m/s 715 mmHg 84%

    15 Decembrie, Duminică

    Timp Temperatura Precipitaţii Vânt Presiune Umiditate
    00:00 0°C° 0.2 mm 12 m/s 716 mmHg 87%
    01:00 0°C° 0.7 mm 12 m/s 716 mmHg 88%
    02:00 0°C° 0.7 mm 13 m/s 716 mmHg 89%
    03:00 0°C° 0.7 mm 14 m/s 716 mmHg 89%
    04:00 0°C° 1.1 mm 14 m/s 716 mmHg 88%
    05:00 0°C° 1.1 mm 14 m/s 716 mmHg 87%
    06:00 0°C° 1.1 mm 14 m/s 717 mmHg 86%
    07:00 0°C° 0.9 mm 14 m/s 717 mmHg 87%
    08:00 0°C° 0.9 mm 13 m/s 717 mmHg 87%
    09:00 0°C° 0.9 mm 12 m/s 718 mmHg 87%
    10:00 0°C° 0.6 mm 13 m/s 718 mmHg 83%
    11:00 0°C° 0.6 mm 13 m/s 719 mmHg 79%
    12:00 +1°C° 0.6 mm 13 m/s 719 mmHg 75%
    13:00 +2°C° 0.2 mm 12 m/s 720 mmHg 76%
    14:00 +2°C° 0.2 mm 11 m/s 720 mmHg 77%
    15:00 +2°C° 0.2 mm 11 m/s 720 mmHg 77%
    16:00 +2°C° 0.2 mm 10 m/s 721 mmHg 79%
    17:00 +1°C° 0.2 mm 9 m/s 721 mmHg 82%
    18:00 +1°C° 0.2 mm 8 m/s 721 mmHg 84%
    19:00 +2°C° 0.1 mm 7 m/s 722 mmHg 84%
    20:00 +2°C° 0.1 mm 7 m/s 722 mmHg 84%
    21:00 +2°C° 0.1 mm 6 m/s 723 mmHg 84%
    22:00 +2°C° 0.2 mm 6 m/s 723 mmHg 84%
    23:00 +2°C° 0.2 mm 6 m/s 723 mmHg 84%
    Arată mai mult